Other Public Products
Issued by NWS Grand Forks, ND

Home | Current Version | Previous Version | Graphics & Text | Print | Product List | Glossary On
Versions: 1 2 3 4 5 6 7 8 9 10 11 12 13 14 15 16 17 18 19 20 21 22 23 24 25 26 27 28 29 30 31 32 33 34 35 36 37 38 39 40 41 42 43 44 45 46 47 48 49 50
000
FPUS83 KFGF 281710
OPUFGF
PRAIRIE TO PINES WEATHER ROUNDUP
NATIONAL WEATHER SERVICE EASTERN NORTH DAKOTA/GRAND FORKS ND
1200 PM CDT SAT MAR 28 2015

 **SATELLITE DATA USED TO AUGMENT SKY COVER AT AUTOMATED STATIONS**
 *****  WEATHER ACROSS EASTERN NORTH DAKOTA  *****

CITY           SKY/WX    TMP DP  RH WIND       PRES   REMARKS
GRAND FORKS    MOSUNNY   41  27  57 S23G31    29.99F
GRAND FORKS AF NOT AVBL
GRAND CITY NWS   N/A     39 N/A N/A S24         N/A
BUXTON         NOT AVBL
DEVILS LAKE    MOSUNNY   36  30  80 S20G25    29.88F
FARGO          MOSUNNY   44  27  51 S22       30.04F
WAHPETON ARPT  MOSUNNY   39  27  60 S16G28    30.08F
$$

 *****  WEATHER ACROSS CENTRAL AND WESTERN NORTH DAKOTA  *****

CITY           SKY/WX    TMP DP  RH WIND       PRES   REMARKS
JAMESTOWN      SUNNY     37  31  78 S21       29.93F
BISMARCK       SUNNY     45  33  63 S15       29.85F
MINOT          SUNNY     50  36  58 SE13      29.72F
MINOT AFB      SUNNY     46  44  93 SE16      29.71F
GARRISON         N/A     41  35  79 S18       29.76F
WILLISTON      SUNNY     61  37  41 S14       29.63F
DICKINSON      SUNNY     62  37  39 S23       29.71F
HETTINGER      SUNNY     60  36  40 S16G22    29.79F
$$

 *****  OTHER OBSERVATIONS NORTHEAST NORTH DAKOTA  *****

CITY           SKY/WX    TMP DP  RH WIND       PRES   REMARKS
WALHALLA         N/A     36  36 100 S16G29    29.90F
LANGDON        NOT AVBL
CAVALIER       CLOUDY    36  30  80 S22       29.92F
GRAFTON        NOT AVBL
CANDO          NOT AVBL
FORT TOTTEN      N/A     36  31  82 S15       29.95
ROLLA          FOG       30  30 100 S20G25    29.80F VSB 1/4 WCI  18
RUGBY          CLOUDY    34  34 100 S20       29.81F WCI  22
 ***** THE ABOVE OBSERVATIONS ARE NON NWS ARE NOT QUALITY
        CONTROLLED AND MAY MIS-REPORT RAIN FOR SNOW...
$$

 *****  OTHER OBSERVATIONS SOUTHEAST NORTH DAKOTA *****

CITY           SKY/WX    TMP DP  RH WIND       PRES   REMARKS
COOPERSTOWN    NOT AVBL
VALLEY CITY    CLOUDY    36  36 100 S20       29.98F
OAKES            N/A     39  36  87 S17       30.00F
GWINNER        SUNNY     41  34  75 S17         N/A
BUFFALO        NOT AVBL
WYNDMERE         N/A     36  30  80 S15         N/A
 ***** THE ABOVE OBSERVATIONS ARE NON NWS ARE NOT QUALITY
       CONTROLLED AND MAY MIS-REPORT RAIN FOR SNOW...
$$

  *****  WEATHER ACROSS NORTHERN MINNESOTA  *****

CITY           SKY/WX    TMP DP  RH WIND       PRES   REMARKS
FLAG ISLAND    SUNNY     27  19  74 S12       30.01F WCI  16
WARROAD        SUNNY     37  23  56 S14G21    30.01F
ROSEAU         SUNNY     37  25  60 S17       30.00F
HALLOCK        MOSUNNY   39  28  65 S23       29.97F
THF RVR FALLS  MOSUNNY   37  25  60 S18G25    30.02F
HALSTAD        NOT AVBL
FOSSTON        SUNNY     37  21  52 S24       30.05F
BAUDETTE       SUNNY     37  13  37 S16       30.03F
WASKISH        SUNNY     39  16  38 S9G17     30.06F
CROOKSTON      SUNNY     39  25  56 S26       30.03F
$$
  *****  WEATHER ACROSS CENTRAL AND WEST MINNESOTA  *****

CITY           SKY/WX    TMP DP  RH WIND       PRES   REMARKS
BEMIDJI        SUNNY     37  16  41 S14G22    30.07F
PARK RAPIDS    SUNNY     40  19  43 S17       30.09F
WADENA         MOSUNNY   37  23  56 S16       30.11F
DETROIT LAKES  SUNNY     37  27  65 S15       30.07F
MOORHEAD       MOSUNNY   41  27  56 S21G28    30.06F
FERGUS FALLS   CLOUDY    37  21  52 S17G26    30.12F
ELBOW LAKE     PTSUNNY   38  27  65 S18       30.11F
MORRIS MN      PTSUNNY   37  28  70 S18       30.11F
STAPLES        SUNNY     37  19  48 S18       30.13F
WHEATON        MOSUNNY   36  27  69 S15G24    30.11F
$$
  *****  WEATHER ELSEWHERE ACROSS MINNESOTA  *****

CITY           SKY/WX    TMP DP  RH WIND       PRES   REMARKS
DULUTH         SUNNY     36   8  31 SW12G23   30.16F
INTRNTL FALLS  SUNNY     38  11  32 SW13G23   30.07F
ELY            SUNNY     36   3  25 SW10      30.12F
CLOQUET        SUNNY     36   3  25 S8G18     30.17F
BRAINERD       SUNNY     38  14  37 S12       30.15F
HIBBING        SUNNY     37   6  27 S12       30.12F
ALEXANDRIA     MOSUNNY   37  24  59 S16       30.13F
SAINT CLOUD    SUNNY     38  17  42 SE12      30.19F
MINNEAPOLIS    SUNNY     35  13  40 S10       30.25F
$$

  *****  WEATHER ACROSS SOUTH DAKOTA  *****

CITY           SKY/WX    TMP DP  RH WIND       PRES   REMARKS
SIOUX FALLS    MOSUNNY   43  26  51 S17G23    30.11F
BROOKINGS      NOT AVBL
WATERTOWN      SUNNY     39  27  62 S18       30.04F
HURON          SUNNY     43  28  55 S17G26    30.03F
SISSETON         N/A     37  32  82 S18       30.06F
ABERDEEN       SUNNY     44  29  55 S20       30.01F
MITCHELL       SUNNY     44  28  53 SE20      30.06F
PIERRE         SUNNY     48  33  56 SE16      29.93F
MOBRIDGE       SUNNY     48  33  56 S22       29.88F
RAPID CITY     SUNNY     67  36  31 S13       29.84F
$$

  *****  SOME WEATHER IN NEARBY STATES *****

CITY           SKY/WX    TMP DP  RH WIND       PRES   REMARKS
GLASGOW MT     MOSUNNY   61  36  39 SE12      29.57F
GREAT FALLS MT CLOUDY    55  32  41 W30G40    29.72R
CHEYENNE WY    SUNNY     67  25  20 W26G33    30.06F
SCOTTSBLUFF NE SUNNY     67  34  29 W9G18     29.96F
OMAHA NE       SUNNY     45  27  49 SE17      30.17S
DES MOINES IA  MOSUNNY   44  12  27 S16G24    30.24S
DAVENPORT IA   SUNNY     35  12  38 VRB7      30.33F
CHICAGO IL     SUNNY     32  10  40 NE8       30.34S WCI  25
EAU CLAIRE WI  SUNNY     37   9  31 S12       30.26F
LA CROSSE WI   SUNNY     38  14  37 S8        30.30F
$$

  *****  SOME NATIONAL WEATHER *****

CITY           SKY/WX    TMP DP  RH WIND       PRES   REMARKS
LA GUARDIA NY  LGT SNOW  33  24  69 NW15      29.84S WCI  23
RALEIGH NC     MOSUNNY   40  15  36 NW12G21   30.06S
ATLANTA GA     SUNNY     46  17  31 N8G18     30.15F
NEW ORLEANS LA MOSUNNY   63  41  44 S7        30.26S
OKLAHOMA CITY  MOSUNNY   63  43  48 S12G17    30.04F
ALBUQUERQUE NM SUNNY     64  20  18 NE5       30.26F
SALT LAKE CITY MOSUNNY   67  32  27 W12       30.12R
LOS ANGELES CA MOSUNNY   65  58  78 SE5       30.08S HAZE
BOISE ID       SUNNY     54  32  43 NW23G33   30.26R
SEATTLE WA     PTSUNNY   53  45  74 S15G23    30.31R
$$

*** WEATHER ACROSS MANITOBA...SASKATCHEWAN AND ONTARIO ***
                ***ONTARIO***

CITY           SKY/WX    TMP DP  RH WIND       PRES   REMARKS
GERALDTON      MOSUNNY   32   3  29 W13G20    30.10F WCI  22
THUNDER BAY    SUNNY     36  10  35 VRB6      30.18F
SIOUX LOOKOUT  PTSUNNY   34   9  35 SW12G18   30.02F
TORONTO        SUNNY     27   0  31 N18G26    30.18F WCI  13
BIG TROUT LK   MOSUNNY   34  19  55 SW14G23   29.80F WCI  24
PICKLE LAKE    MOSUNNY   32   5  32 SW14G23   29.96F WCI  22
DRYDEN         SUNNY     34   9  35 S14G24    30.01F WCI  24
KENORA         PTSUNNY   34  10  37 SW15G26   29.99F WCI  24
$$
                *** MANITOBA***

CITY           SKY/WX    TMP DP  RH WIND       PRES   REMARKS
BRANDON        MOSUNNY   36  32  87 S15       29.75F
DAUPHIN        SUNNY     39  32  75 S7        29.67F
ISLAND LAKE    PTSUNNY   36  25  64 SW17G32   29.72F
PILOT MOUND      N/A     32  30  93 S23G29      N/A  WCI  19
THE PAS        CLOUDY    34  30  86 SE13G20   29.52F WCI  25
THOMPSON       LGT SNOW  28  27  93 SW8       29.57F VSB 1   WCI  20
WINNIPEG       PTSUNNY   37  28  70 S23G33    29.90F
LYNN LAKE      FLURRIES  34  32  93 SW9       29.45F
CHURCHILL      MOSUNNY   34  25  69 W20G26    29.41F WCI  22
GILLAM         CLOUDY    28  23  80 SW12G20   29.58F WCI  18
$$
                ***SASKATCHEWAN***

CITY           SKY/WX    TMP DP  RH WIND       PRES   REMARKS
ESTEVAN        NOT AVBL
KINDERSLEY     CLOUDY    52  39  62 NW5       29.47S
LLOYDMINSTER   CLOUDY    39  36  87 N14       29.52R
PRINCE ALBERT  CLOUDY    43  36  75 W8        29.43F
REGINA         PTSUNNY   43  39  87 SE15      29.52F
YORKTON        MOSUNNY   36  32  87 S21G28    29.54F


USA.gov is the U.S. government's official web portal to all federal, state and local government web resources and services.